This is the latest recevied weather packets stored in our database for station/object KE4EST. If no packets are shown the sender has not sent any weather packets the latest 10 day(s).
| Time | Temp. | Humidity | Pressure | Rain* | Wind** | Luminosity | Snow |
|---|---|---|---|---|---|---|---|
| 1778138442 | 15.56° C | 99% | 1012.5 hPa | 0 mm | - | 0 W/m² | - |
| 1778138140 | 15.56° C | 99% | 1012.5 hPa | 0 mm | - | 0 W/m² | - |
| 1778137836 | 15.56° C | 99% | 1012.4 hPa | 0 mm | - | 0 W/m² | - |
| 1778137533 | 15.56° C | 99% | 1012.6 hPa | 0 mm | - | 0 W/m² | - |
| 1778137230 | 15.56° C | 99% | 1012.6 hPa | 0 mm | - | 0 W/m² | - |
| 1778136927 | 15.56° C | 99% | 1012.8 hPa | 0 mm | - | 0 W/m² | - |
| 1778136624 | 15.56° C | 99% | 1012.8 hPa | 0 mm | - | 0 W/m² | - |
| 1778136322 | 15.56° C | 99% | 1012.8 hPa | 4.32 mm | - | 0 W/m² | - |
| 1778136020 | 15.56° C | 99% | 1013.3 hPa | 6.1 mm | - | 0 W/m² | - |
| 1778135717 | 15.56° C | 99% | 1012.5 hPa | 3.05 mm | - | 0 W/m² | - |
| 1778135414 | 15.56° C | 99% | 1013.4 hPa | 0 mm | - | 0 W/m² | - |
| 1778135111 | 15.56° C | 99% | 1012.1 hPa | 0 mm | - | 0 W/m² | - |
| 1778134809 | 15.56° C | 99% | 1012.1 hPa | 0 mm | - | 0 W/m² | - |
| 1778134506 | 15.56° C | 99% | 1012.4 hPa | 0 mm | - | 0 W/m² | - |
| 1778134204 | 15.56° C | 99% | 1012.1 hPa | 0 mm | - | 0 W/m² | - |
| 1778133901 | 15.56° C | 99% | 1012.8 hPa | 0 mm | - | 0 W/m² | - |
| 1778133597 | 15.56° C | 99% | 1012.7 hPa | 0 mm | - | 0 W/m² | - |
| 1778133293 | 15.56° C | 99% | 1012.9 hPa | 0 mm | - | 0 W/m² | - |
| 1778132989 | 15.56° C | 99% | 1012.8 hPa | 0 mm | - | 0 W/m² | - |
| 1778132685 | 15.56° C | 99% | 1012.2 hPa | 0 mm | - | 0 W/m² | - |
| 1778132383 | 15.56° C | 99% | 1012.1 hPa | 0 mm | - | 0 W/m² | - |
| 1778132081 | 15.56° C | 99% | 1013 hPa | 0 mm | - | 0 W/m² | - |
| 1778131779 | 15.56° C | 99% | 1013.1 hPa | 1.27 mm | - | 0 W/m² | - |
| 1778131476 | 16.11° C | 99% | 1013.3 hPa | 3.05 mm | - | 0 W/m² | - |
| 1778131173 | 16.11° C | 99% | 1013.5 hPa | 1.78 mm | - | 0 W/m² | - |
* Rain latest hour (hover to see other rain measurements)
** Current wind speed in m/s (hover to see current wind gust speed)